Location: *
(43.4667°N, 11.6833°E)
Time: 01:20:53
(UTC+00:00)

Cosmos 1400 Rocket - Pass Details

Date: 19 July 2019
Orbit: 522 x 568 km, 81.2° (Epoch: 20 August)

Event Time Altitude Azimuth Distance (km) Brightness Sun altitude
Rises 22:22:44 0° 350° (N) 2,779 7.8 -24.5°
Reaches altitude 10° 22:24:56 10° 351° (N) 1,875 6.6 -24.6°
Enters shadow 22:28:37 69° 3° (N) 607 3.1 -24.7°
